Regional Weather Roundup
Issued by NWS

Home | Current Version | Previous Version | Graphics & Text | Print | Product List | Glossary On
Versions: 1 2 3 4 5 6 7 8 9 10 11 12 13 14 15 16 17 18 19 20 21 22 23 24 25 26 27 28 29 30 31 32 33 34 35 36 37 38 39 40 41 42 43 44 45 46 47 48 49 50
000
ASUS43 KFSD 250302
RWRSD

WEATHER ROUNDUP FOR SOUTH DAKOTA
NATIONAL WEATHER SERVICE SIOUX FALLS SD
1000 PM CDT FRI APR 24 2015

NOTE: "FAIR" INDICATES FEW OR NO CLOUDS BELOW 12,000 FEET WITH NO
SIGNIFICANT WEATHER AND/OR OBSTRUCTIONS TO VISIBILITY.


SDZ001>005-009-010-012>017-250400-
NORTHWEST AND NORTH CENTRAL SOUTH DAKOTA

CITY           SKY/WX    TMP DP  RH WIND       PRES   REMARKS
BUFFALO          N/A     54  34  46 E13       29.58R
FAITH            N/A     50  36  58 NE9       29.61R
MOBRIDGE       CLEAR     55  45  68 E14       29.60R
$$

SDZ012>016-024>037-041>051-057-063-072>074-250400-
SOUTHWEST AND SOUTH CENTRAL SOUTH DAKOTA

CITY           SKY/WX    TMP DP  RH WIND       PRES   REMARKS
RAPID CTY ARPT MOCLDY    48  44  86 W3        29.61R
PIERRE         MOCLDY    58  46  64 NE18      29.52R
CUSTER         PTCLDY    45  38  76 N5        29.68R
ELLSWORTH AFB  MOCLDY    52  45  76 W5        29.62R
PHILIP         CLOUDY    56  46  69 W7        29.58R
PINE RIDGE     CLOUDY    53  45  74 NE8       29.60R
WINNER         MOCLDY    65  46  50 N8        29.49R
$$

SDZ004>011-016>023-039-040-250400-
NORTHEAST SOUTH DAKOTA

CITY           SKY/WX    TMP DP  RH WIND       PRES   REMARKS
ABERDEEN       MOCLDY    50  44  80 NE12      29.64R
WATERTOWN      CLOUDY    47  43  86 E10G21    29.64R
BROOKINGS      CLOUDY    52  46  82 E16G22    29.64R
SISSETON         N/A     46  43  89 SE15      29.70R
$$

SDZ017-020-022-023-036>040-048>070-250400-
SOUTHEAST SOUTH DAKOTA

CITY           SKY/WX    TMP DP  RH WIND       PRES   REMARKS
SIOUX FALLS    CLOUDY    54  48  80 SE17      29.60R
HURON          CLOUDY    54  48  80 E26G33    29.54S
MITCHELL       TSTM      57  52  83 N8        29.56R
YANKTON        MOCLDY    63  52  67 SE8       29.53S
$$

ABBREVIATIONS USED IN REMARKS
   TC - TEMPERATURE IN CELSIUS
  WCI - WIND CHILL INDEX
   HX - HEAT INDEX
  VSB - VISIBILITY



USA.gov is the U.S. government's official web portal to all federal, state and local government web resources and services.